| time (UTC) | temp F | wind direction | speed MPH | gust MPH | rain 1hr in | rain 24hr in | rain mn in | humidity % | barometer mb |
| 20260507030540 | 42 | 247 | 0.0 | 0.0 | 0.00 | 0.56 | 0.56 | 97 | 1011.6 |
| 20260507030038 | 42 | 253 | 1.0 | 1.0 | 0.00 | 0.56 | 0.56 | 98 | 1011.5 |
| 20260507025535 | 42 | 245 | 0.0 | 1.0 | 0.00 | 0.56 | 0.56 | 98 | 1011.5 |
| 20260507025032 | 42 | 245 | 0.0 | 0.0 | 0.05 | 0.56 | 0.56 | 98 | 1011.6 |
| 20260507024530 | 42 | 238 | 0.0 | 0.0 | 0.05 | 0.56 | 0.56 | 98 | 1011.6 |
| 20260507024026 | 42 | 242 | 0.0 | 0.0 | 0.00 | 0.55 | 0.55 | 98 | 1011.7 |
| 20260507023522 | 42 | 250 | 0.0 | 0.0 | 0.00 | 0.55 | 0.55 | 98 | 1011.7 |
| 20260507023020 | 42 | 246 | 0.0 | 0.0 | 0.00 | 0.55 | 0.55 | 98 | 1011.7 |
| 20260507022516 | 42 | 251 | 1.0 | 1.0 | 0.00 | 0.55 | 0.55 | 98 | 1011.5 |
| 20260507022012 | 42 | 235 | 1.0 | 1.0 | 0.00 | 0.55 | 0.55 | 98 | 1011.8 |
| 20260507021508 | 42 | 233 | 2.0 | 3.0 | 0.00 | 0.55 | 0.55 | 98 | 1011.8 |
| 20260507021005 | 42 | 240 | 1.0 | 1.0 | 0.00 | 0.55 | 0.55 | 98 | 1011.7 |
| 20260507020502 | 42 | 240 | 0.0 | 0.0 | 0.00 | 0.55 | 0.55 | 98 | 1011.9 |
| 20260507015958 | 42 | 220 | 1.0 | 2.0 | 0.00 | 0.55 | 0.55 | 98 | 1011.7 |
| 20260507015457 | 42 | 234 | 2.0 | 2.0 | 0.00 | 0.55 | 0.55 | 98 | 1011.7 |
| 20260507014954 | 42 | 230 | 2.0 | 2.0 | 0.00 | 0.55 | 0.55 | 98 | 1011.5 |
| 20260507014450 | 42 | 240 | 0.0 | 0.0 | 0.00 | 0.55 | 0.55 | 98 | 1011.5 |
| 20260507013946 | 42 | 238 | 2.0 | 2.0 | 0.00 | 0.55 | 0.55 | 97 | 1011.5 |
| 20260507013443 | 42 | 237 | 1.0 | 2.0 | 0.00 | 0.55 | 0.55 | 97 | 1011.5 |
| 20260507012941 | 42 | 244 | 0.0 | 0.0 | 0.00 | 0.55 | 0.55 | 97 | 1011.6 |
| 20260507012437 | 42 | 246 | 1.0 | 1.0 | 0.00 | 0.55 | 0.55 | 97 | 1011.7 |
| 20260507011934 | 42 | 261 | 2.0 | 2.0 | 0.00 | 0.55 | 0.55 | 97 | 1011.7 |
| 20260507011431 | 42 | 252 | 1.0 | 1.0 | 0.00 | 0.55 | 0.55 | 97 | 1011.5 |
| 20260507010931 | 42 | 246 | 1.0 | 1.0 | 0.00 | 0.55 | 0.55 | 97 | 1011.5 |
| 20260507010426 | 42 | 265 | 2.0 | 3.0 | 0.07 | 0.55 | 0.55 | 97 | 1011.4 |
| 20260507005924 | 42 | 248 | 1.0 | 1.0 | 0.07 | 0.55 | 0.55 | 97 | 1011.5 |
| 20260507005421 | 42 | 262 | 1.0 | 1.0 | 0.00 | 0.54 | 0.54 | 96 | 1011.5 |
| 20260507004917 | 42 | 257 | 1.0 | 1.0 | 0.00 | 0.54 | 0.54 | 96 | 1011.4 |
| 20260507004414 | 42 | 253 | 0.0 | 1.0 | 0.00 | 0.54 | 0.54 | 96 | 1011.3 |
| 20260507003912 | 41 | 268 | 1.0 | 1.0 | 0.00 | 0.54 | 0.54 | 96 | 1011.1 |
| 20260507003407 | 41 | 278 | 2.0 | 2.0 | 0.00 | 0.54 | 0.54 | 95 | 1010.9 |
| 20260507002902 | 41 | 274 | 2.0 | 2.0 | 0.00 | 0.54 | 0.54 | 95 | 1010.9 |
| 20260507002358 | 42 | 267 | 2.0 | 2.0 | 0.00 | 0.54 | 0.54 | 95 | 1011.0 |
| 20260507001856 | 42 | 288 | 3.0 | 3.0 | 0.00 | 0.54 | 0.54 | 94 | 1010.9 |
| 20260507001352 | 44 | 294 | 6.0 | 8.0 | 0.00 | 0.54 | 0.54 | 94 | 1010.7 |
| 20260507000849 | 44 | 273 | 4.0 | 4.0 | 0.00 | 0.54 | 0.54 | 93 | 1010.7 |
| 20260507000344 | 44 | 273 | 2.0 | 3.0 | 0.00 | 0.54 | 0.54 | 93 | 1010.5 |
| 20260506235841 | 44 | 259 | 1.0 | 1.0 | 0.00 | 0.54 | 0.54 | 93 | 1010.5 |
| 20260506235338 | 45 | 282 | 2.0 | 2.0 | 0.00 | 0.54 | 0.54 | 93 | 1010.6 |
| 20260506234834 | 45 | 305 | 2.0 | 3.0 | 0.00 | 0.54 | 0.54 | 93 | 1010.5 |
| 20260506234332 | 46 | 327 | 2.0 | 3.0 | 0.05 | 0.54 | 0.54 | 92 | 1010.3 |
| 20260506233830 | 46 | 323 | 4.0 | 6.0 | 0.05 | 0.54 | 0.54 | 91 | 1010.2 |
| 20260506233325 | 47 | 288 | 2.0 | 2.0 | 0.00 | 0.53 | 0.53 | 89 | 1010.1 |
| 20260506232822 | 47 | 294 | 2.0 | 2.0 | 0.00 | 0.53 | 0.53 | 88 | 1010.0 |
| 20260506232318 | 47 | 273 | 1.0 | 1.0 | 0.00 | 0.53 | 0.53 | 88 | 1009.9 |
| 20260506231815 | 48 | 243 | 0.0 | 0.0 | 0.00 | 0.53 | 0.53 | 87 | 1009.8 |
| 20260506231313 | 48 | 229 | 1.0 | 1.0 | 0.00 | 0.53 | 0.53 | 86 | 1009.8 |
| 20260506230810 | 48 | 252 | 1.0 | 1.0 | 0.00 | 0.53 | 0.53 | 86 | 1009.7 |
| 20260506230306 | 48 | 234 | 0.0 | 0.0 | 0.00 | 0.53 | 0.53 | 84 | 1009.7 |
| 20260506225803 | 48 | 217 | 2.0 | 2.0 | 0.00 | 0.53 | 0.53 | 83 | 1009.6 |
| 20260506225300 | 48 | 234 | 1.0 | 1.0 | 0.00 | 0.53 | 0.53 | 83 | 1009.7 |
| 20260506224756 | 48 | 227 | 1.0 | 2.0 | 0.07 | 0.53 | 0.53 | 83 | 1009.6 |
| 20260506224254 | 47 | 235 | 1.0 | 2.0 | 0.07 | 0.53 | 0.53 | 84 | 1009.4 |
| 20260506223750 | 47 | 222 | 0.0 | 0.0 | 0.00 | 0.52 | 0.52 | 83 | 1009.3 |
| 20260506223245 | 47 | 230 | 1.0 | 1.0 | 0.00 | 0.52 | 0.52 | 83 | 1009.4 |
| 20260506222743 | 47 | 198 | 2.0 | 2.0 | 0.00 | 0.52 | 0.52 | 83 | 1009.5 |
| 20260506222238 | 47 | 230 | 1.0 | 1.0 | 0.00 | 0.52 | 0.52 | 82 | 1009.2 |
| 20260506221736 | 47 | 212 | 1.0 | 1.0 | 0.00 | 0.52 | 0.52 | 83 | 1009.2 |
| 20260506221234 | 47 | 212 | 1.0 | 1.0 | 0.00 | 0.52 | 0.52 | 83 | 1009.3 |
| 20260506220731 | 47 | 222 | 1.0 | 1.0 | 0.00 | 0.52 | 0.52 | 84 | 1009.3 |
| 20260506220231 | 47 | 228 | 1.0 | 2.0 | 0.05 | 0.52 | 0.52 | 84 | 1009.2 |
| 20260506215729 | 47 | 212 | 1.0 | 1.0 | 0.05 | 0.52 | 0.52 | 83 | 1009.0 |
| 20260506215224 | 47 | 199 | 1.0 | 1.0 | 0.00 | 0.51 | 0.51 | 83 | 1009.3 |
| 20260506214721 | 47 | 227 | 0.0 | 0.0 | 0.00 | 0.51 | 0.51 | 84 | 1009.3 |
| 20260506214218 | 47 | 234 | 0.0 | 0.0 | 0.00 | 0.51 | 0.51 | 84 | 1009.3 |
| 20260506213716 | 47 | 196 | 2.0 | 2.0 | 0.00 | 0.51 | 0.51 | 83 | 1009.4 |
| 20260506213213 | 47 | 228 | 0.0 | 0.0 | 0.00 | 0.51 | 0.51 | 83 | 1009.5 |
| 20260506212711 | 47 | 226 | 0.0 | 1.0 | 0.00 | 0.51 | 0.51 | 82 | 1009.4 |
| 20260506212206 | 48 | 204 | 0.0 | 0.0 | 0.07 | 0.51 | 0.51 | 82 | 1009.4 |
| 20260506211702 | 47 | 261 | 0.0 | 1.0 | 0.07 | 0.51 | 0.51 | 81 | 1009.3 |
| 20260506211158 | 47 | 254 | 0.0 | 0.0 | 0.00 | 0.50 | 0.50 | 82 | 1009.3 |
| 20260506210655 | 47 | 266 | 0.0 | 0.0 | 0.00 | 0.50 | 0.50 | 83 | 1009.3 |
| 20260506210152 | 48 | 293 | 1.0 | 1.0 | 0.00 | 0.50 | 0.50 | 81 | 1009.6 |
| 20260506205649 | 47 | 269 | 0.0 | 0.0 | 0.00 | 0.50 | 0.50 | 82 | 1009.3 |
| 20260506205144 | 47 | 264 | 1.0 | 1.0 | 0.00 | 0.50 | 0.50 | 83 | 1009.3 |
| 20260506204642 | 47 | 257 | 0.0 | 0.0 | 0.05 | 0.50 | 0.50 | 83 | 1009.5 |
| 20260506204138 | 47 | 285 | 1.0 | 1.0 | 0.05 | 0.50 | 0.50 | 84 | 1009.4 |
| 20260506203637 | 46 | 209 | 1.0 | 1.0 | 0.00 | 0.49 | 0.49 | 84 | 1009.0 |
| 20260506203133 | 46 | 219 | 1.0 | 1.0 | 0.00 | 0.49 | 0.49 | 84 | 1009.5 |
| 20260506202632 | 46 | 251 | 0.0 | 0.0 | 0.00 | 0.49 | 0.49 | 84 | 1009.3 |
| 20260506202127 | 46 | 238 | 0.0 | 1.0 | 0.00 | 0.49 | 0.49 | 85 | 1009.0 |
| 20260506201624 | 46 | 76 | 2.0 | 2.0 | 0.00 | 0.49 | 0.49 | 85 | 1008.9 |
| 20260506201121 | 46 | 271 | 0.0 | 0.0 | 0.07 | 0.49 | 0.49 | 84 | 1009.3 |
| 20260506200617 | 46 | 21 | 2.0 | 3.0 | 0.07 | 0.49 | 0.49 | 85 | 1009.7 |
| 20260506200114 | 46 | 321 | 2.0 | 2.0 | 0.00 | 0.48 | 0.48 | 84 | 1009.5 |
| 20260506195611 | 46 | 344 | 2.0 | 3.0 | 0.00 | 0.48 | 0.48 | 83 | 1009.6 |
| 20260506195107 | 46 | 275 | 0.0 | 0.0 | 0.00 | 0.48 | 0.48 | 83 | 1009.4 |
| 20260506194605 | 46 | 290 | 2.0 | 2.0 | 0.00 | 0.48 | 0.48 | 83 | 1009.4 |
| 20260506194101 | 46 | 307 | 1.0 | 1.0 | 0.07 | 0.48 | 0.48 | 85 | 1009.3 |
| 20260506193559 | 46 | 336 | 4.0 | 4.0 | 0.07 | 0.48 | 0.48 | 84 | 1009.3 |
| 20260506193056 | 46 | 348 | 5.0 | 6.0 | 0.00 | 0.47 | 0.47 | 84 | 1009.3 |
| 20260506192553 | 46 | 137 | 2.0 | 2.0 | 0.00 | 0.47 | 0.47 | 84 | 1009.2 |
| 20260506192048 | 46 | 269 | 1.0 | 1.0 | 0.00 | 0.47 | 0.47 | 86 | 1009.2 |
| 20260506191545 | 45 | 286 | 1.0 | 2.0 | 0.00 | 0.47 | 0.47 | 86 | 1009.3 |
| 20260506191041 | 45 | 299 | 3.0 | 3.0 | 0.05 | 0.47 | 0.47 | 85 | 1009.6 |
| 20260506190538 | 45 | 341 | 4.0 | 4.0 | 0.05 | 0.47 | 0.47 | 85 | 1009.6 |
| 20260506190036 | 46 | 274 | 1.0 | 2.0 | 0.00 | 0.46 | 0.46 | 85 | 1009.6 |
| 20260506185533 | 45 | 309 | 3.0 | 4.0 | 0.00 | 0.46 | 0.46 | 86 | 1009.3 |
| 20260506185029 | 45 | 329 | 4.0 | 4.0 | 0.00 | 0.46 | 0.46 | 87 | 1009.4 |
| 20260506184527 | 45 | 351 | 6.0 | 7.0 | 0.00 | 0.46 | 0.46 | 86 | 1009.4 |
| 20260506184024 | 45 | 347 | 4.0 | 4.0 | 0.07 | 0.46 | 0.46 | 87 | 1009.3 |
| 20260506183519 | 45 | 305 | 3.0 | 3.0 | 0.07 | 0.46 | 0.46 | 89 | 1009.5 |
| 20260506183016 | 45 | 23 | 3.0 | 3.0 | 0.00 | 0.45 | 0.45 | 87 | 1009.6 |
| 20260506182514 | 46 | 0 | 5.0 | 7.0 | 0.00 | 0.45 | 0.45 | 89 | 1009.3 |
| 20260506182011 | 44 | 344 | 5.0 | 6.0 | 0.00 | 0.45 | 0.45 | 88 | 1009.5 |
| 20260506181509 | 44 | 357 | 5.0 | 6.0 | 0.00 | 0.45 | 0.45 | 90 | 1009.7 |
| 20260506181005 | 44 | 24 | 3.0 | 3.0 | 0.05 | 0.45 | 0.45 | 90 | 1009.8 |
| 20260506180502 | 44 | 12 | 5.0 | 6.0 | 0.05 | 0.45 | 0.45 | 91 | 1009.9 |
| 20260506175958 | 44 | 0 | 6.0 | 7.0 | 0.00 | 0.44 | 0.44 | 90 | 1009.8 |
| 20260506175455 | 44 | 329 | 7.0 | 8.0 | 0.00 | 0.44 | 0.44 | 91 | 1009.8 |
| 20260506174952 | 44 | 316 | 4.0 | 6.0 | 0.00 | 0.44 | 0.44 | 92 | 1009.5 |
| 20260506174450 | 44 | 335 | 5.0 | 6.0 | 0.00 | 0.44 | 0.44 | 92 | 1009.6 |
| 20260506173946 | 44 | 23 | 5.0 | 6.0 | 0.07 | 0.44 | 0.44 | 93 | 1009.2 |
| 20260506173444 | 43 | 341 | 4.0 | 6.0 | 0.07 | 0.44 | 0.44 | 93 | 1009.3 |
| 20260506172940 | 43 | 357 | 5.0 | 7.0 | 0.00 | 0.43 | 0.43 | 93 | 1009.2 |
| 20260506172438 | 43 | 33 | 6.0 | 7.0 | 0.00 | 0.43 | 0.43 | 93 | 1009.0 |
| 20260506171934 | 43 | 356 | 8.0 | 9.0 | 0.00 | 0.43 | 0.43 | 93 | 1008.9 |
| 20260506171432 | 44 | 5 | 5.0 | 6.0 | 0.00 | 0.43 | 0.43 | 94 | 1009.2 |
| 20260506170929 | 44 | 8 | 4.0 | 4.0 | 0.05 | 0.43 | 0.43 | 94 | 1008.8 |
| 20260506170425 | 43 | 352 | 3.0 | 3.0 | 0.05 | 0.43 | 0.43 | 94 | 1008.8 |
| 20260506165924 | 44 | 340 | 6.0 | 8.0 | 0.05 | 0.43 | 0.43 | 94 | 1008.8 |
| 20260506165422 | 43 | 297 | 2.0 | 3.0 | 0.00 | 0.42 | 0.42 | 95 | 1008.8 |
| 20260506164918 | 44 | 48 | 4.0 | 4.0 | 0.00 | 0.42 | 0.42 | 95 | 1008.7 |
| 20260506164415 | 43 | 338 | 5.0 | 6.0 | 0.00 | 0.42 | 0.42 | 95 | 1008.9 |
| 20260506163914 | 44 | 11 | 6.0 | 7.0 | 0.00 | 0.42 | 0.42 | 95 | 1008.8 |
| 20260506163413 | 43 | 353 | 5.0 | 6.0 | 0.07 | 0.42 | 0.42 | 95 | 1008.8 |
| 20260506162908 | 43 | 358 | 6.0 | 7.0 | 0.00 | 0.41 | 0.41 | 95 | 1008.7 |
| 20260506162407 | 44 | 2 | 5.0 | 6.0 | 0.00 | 0.41 | 0.41 | 95 | 1008.6 |
| 20260506161904 | 44 | 31 | 4.0 | 4.0 | 0.00 | 0.41 | 0.41 | 95 | 1008.7 |
| 20260506161402 | 44 | 357 | 6.0 | 7.0 | 0.00 | 0.41 | 0.41 | 95 | 1008.8 |
| 20260506160859 | 44 | 16 | 4.0 | 4.0 | 0.05 | 0.41 | 0.41 | 95 | 1008.8 |
| 20260506160355 | 43 | 355 | 2.0 | 2.0 | 0.05 | 0.41 | 0.41 | 95 | 1008.7 |
| 20260506155854 | 43 | 26 | 5.0 | 6.0 | 0.00 | 0.40 | 0.40 | 95 | 1008.8 |
| 20260506155351 | 43 | 14 | 4.0 | 6.0 | 0.00 | 0.40 | 0.40 | 95 | 1008.8 |
| 20260506153508 | 43 | 11 | 7.0 | 8.0 | 0.07 | 0.40 | 0.40 | 96 | 1008.8 |
| 20260506153005 | 44 | 7 | 7.0 | 8.0 | 0.00 | 0.39 | 0.39 | 97 | 1008.7 |
| 20260506152502 | 44 | 357 | 2.0 | 4.0 | 0.00 | 0.39 | 0.39 | 97 | 1008.7 |
| 20260506152000 | 43 | 12 | 4.0 | 4.0 | 0.00 | 0.39 | 0.39 | 98 | 1008.7 |
| 20260506151457 | 43 | 7 | 4.0 | 4.0 | 0.05 | 0.39 | 0.39 | 97 | 1008.7 |
| 20260506150954 | 42 | 26 | 5.0 | 6.0 | 0.05 | 0.39 | 0.39 | 97 | 1008.9 |
| 20260506150450 | 43 | 7 | 4.0 | 4.0 | 0.05 | 0.39 | 0.39 | 97 | 1008.8 |
| 20260506145948 | 43 | 355 | 4.0 | 4.0 | 0.00 | 0.38 | 0.38 | 97 | 1008.5 |
| 20260506145444 | 43 | 11 | 5.0 | 6.0 | 0.00 | 0.38 | 0.38 | 97 | 1008.6 |
| 20260506144942 | 43 | 7 | 4.0 | 4.0 | 0.00 | 0.38 | 0.38 | 97 | 1008.5 |
| 20260506144438 | 43 | 21 | 4.0 | 6.0 | 0.07 | 0.38 | 0.38 | 96 | 1008.6 |
| 20260506143937 | 43 | 39 | 4.0 | 4.0 | 0.07 | 0.38 | 0.38 | 96 | 1008.4 |
| 20260506143433 | 43 | 8 | 6.0 | 7.0 | 0.00 | 0.37 | 0.37 | 96 | 1008.6 |
| 20260506142931 | 43 | 321 | 2.0 | 2.0 | 0.00 | 0.37 | 0.37 | 96 | 1008.6 |
| 20260506142429 | 44 | 302 | 4.0 | 6.0 | 0.00 | 0.37 | 0.37 | 96 | 1008.5 |
| 20260506141927 | 44 | 15 | 4.0 | 6.0 | 0.05 | 0.37 | 0.37 | 96 | 1008.3 |
| 20260506141425 | 44 | 23 | 4.0 | 4.0 | 0.05 | 0.37 | 0.37 | 96 | 1008.1 |
| 20260506140923 | 44 | 4 | 4.0 | 4.0 | 0.00 | 0.36 | 0.36 | 96 | 1008.2 |
| 20260506140419 | 44 | 306 | 1.0 | 2.0 | 0.00 | 0.36 | 0.36 | 96 | 1008.3 |
| 20260506135916 | 44 | 70 | 4.0 | 6.0 | 0.00 | 0.36 | 0.36 | 96 | 1008.5 |
| 20260506135413 | 44 | 255 | 1.0 | 1.0 | 0.07 | 0.36 | 0.36 | 96 | 1008.3 |
| 20260506134909 | 44 | 96 | 2.0 | 2.0 | 0.07 | 0.36 | 0.36 | 96 | 1008.2 |
| 20260506134406 | 44 | 160 | 1.0 | 1.0 | 0.00 | 0.35 | 0.35 | 96 | 1008.3 |
| 20260506133903 | 44 | 73 | 4.0 | 4.0 | 0.00 | 0.35 | 0.35 | 96 | 1008.5 |
| 20260506133359 | 44 | 231 | 1.0 | 2.0 | 0.00 | 0.35 | 0.35 | 96 | 1008.0 |
| 20260506132856 | 44 | 279 | 1.0 | 2.0 | 0.00 | 0.35 | 0.35 | 97 | 1008.2 |
| 20260506132353 | 44 | 247 | 0.0 | 1.0 | 0.07 | 0.35 | 0.35 | 97 | 1008.0 |
| 20260506131851 | 43 | 46 | 3.0 | 3.0 | 0.07 | 0.35 | 0.35 | 96 | 1008.1 |
| 20260506131347 | 43 | 86 | 3.0 | 3.0 | 0.07 | 0.35 | 0.35 | 97 | 1007.9 |
| 20260506130845 | 43 | 213 | 2.0 | 2.0 | 0.00 | 0.34 | 0.34 | 97 | 1008.0 |
| 20260506130341 | 43 | 104 | 4.0 | 4.0 | 0.00 | 0.34 | 0.34 | 97 | 1008.1 |
| 20260506125839 | 43 | 67 | 1.0 | 2.0 | 0.00 | 0.34 | 0.34 | 97 | 1007.9 |
| 20260506125337 | 43 | 295 | 1.0 | 2.0 | 0.05 | 0.34 | 0.34 | 97 | 1008.0 |
| 20260506124835 | 43 | 97 | 4.0 | 4.0 | 0.05 | 0.34 | 0.34 | 97 | 1008.0 |
| 20260506124332 | 43 | 153 | 2.0 | 2.0 | 0.00 | 0.33 | 0.33 | 97 | 1007.9 |
| 20260506123829 | 43 | 70 | 4.0 | 4.0 | 0.00 | 0.33 | 0.33 | 97 | 1008.1 |
| 20260506123328 | 43 | 256 | 0.0 | 0.0 | 0.00 | 0.33 | 0.33 | 97 | 1007.9 |
| 20260506122825 | 43 | 303 | 2.0 | 2.0 | 0.00 | 0.33 | 0.33 | 97 | 1008.0 |
| 20260506122321 | 43 | 186 | 2.0 | 3.0 | 0.07 | 0.33 | 0.33 | 97 | 1008.2 |
| 20260506121820 | 43 | 282 | 2.0 | 2.0 | 0.07 | 0.33 | 0.33 | 97 | 1008.3 |
| 20260506121316 | 43 | 97 | 3.0 | 3.0 | 0.00 | 0.32 | 0.32 | 97 | 1008.1 |
| 20260506120813 | 43 | 331 | 1.0 | 1.0 | 0.00 | 0.32 | 0.32 | 98 | 1008.2 |
| 20260506120311 | 42 | 300 | 2.0 | 3.0 | 0.00 | 0.32 | 0.32 | 97 | 1008.2 |
| 20260506115809 | 43 | 9 | 2.0 | 4.0 | 0.00 | 0.32 | 0.32 | 98 | 1008.1 |
| 20260506115307 | 43 | 356 | 2.0 | 2.0 | 0.05 | 0.32 | 0.32 | 98 | 1008.3 |
| 20260506114804 | 43 | 291 | 1.0 | 1.0 | 0.05 | 0.32 | 0.32 | 98 | 1008.0 |
| 20260506114302 | 43 | 273 | 1.0 | 1.0 | 0.00 | 0.31 | 0.31 | 98 | 1008.3 |
| 20260506113800 | 43 | 279 | 2.0 | 2.0 | 0.00 | 0.31 | 0.31 | 98 | 1008.0 |
| 20260506113257 | 43 | 76 | 6.0 | 7.0 | 0.00 | 0.31 | 0.31 | 98 | 1007.8 |
| 20260506112754 | 43 | 9 | 0.0 | 1.0 | 0.00 | 0.31 | 0.31 | 98 | 1007.8 |
| 20260506112251 | 43 | 255 | 2.0 | 3.0 | 0.07 | 0.31 | 0.31 | 98 | 1007.8 |
| 20260506111748 | 43 | 59 | 3.0 | 3.0 | 0.07 | 0.31 | 0.31 | 98 | 1007.5 |
| 20260506111246 | 43 | 77 | 2.0 | 2.0 | 0.00 | 0.30 | 0.30 | 98 | 1007.6 |
| 20260506110743 | 43 | 75 | 4.0 | 7.0 | 0.00 | 0.30 | 0.30 | 99 | 1007.7 |
| 20260506110241 | 43 | 112 | 2.0 | 2.0 | 0.00 | 0.30 | 0.30 | 99 | 1007.9 |
| 20260506105737 | 43 | 75 | 3.0 | 3.0 | 0.00 | 0.30 | 0.30 | 99 | 1007.7 |
| 20260506105234 | 43 | 63 | 2.0 | 2.0 | 0.05 | 0.30 | 0.30 | 99 | 1007.8 |
| 20260506104732 | 43 | 306 | 2.0 | 2.0 | 0.05 | 0.30 | 0.30 | 99 | 1007.8 |
| 20260506104229 | 43 | 256 | 0.0 | 0.0 | 0.00 | 0.29 | 0.29 | 99 | 1008.0 |
| 20260506103726 | 43 | 103 | 0.0 | 1.0 | 0.00 | 0.29 | 0.29 | 99 | 1008.0 |
| 20260506103223 | 43 | 304 | 1.0 | 2.0 | 0.00 | 0.29 | 0.29 | 99 | 1008.0 |
| 20260506102721 | 43 | 256 | 0.0 | 0.0 | 0.07 | 0.29 | 0.29 | 99 | 1008.2 |
| 20260506102220 | 43 | 226 | 3.0 | 4.0 | 0.07 | 0.29 | 0.29 | 99 | 1008.3 |
| 20260506101716 | 43 | 65 | 2.0 | 2.0 | 0.00 | 0.28 | 0.28 | 99 | 1008.0 |
| 20260506101212 | 43 | 39 | 4.0 | 4.0 | 0.00 | 0.28 | 0.28 | 99 | 1008.2 |
| 20260506100711 | 43 | 19 | 2.0 | 2.0 | 0.00 | 0.28 | 0.28 | 99 | 1008.0 |
| 20260506100208 | 43 | 305 | 3.0 | 4.0 | 0.05 | 0.28 | 0.28 | 99 | 1008.1 |
| 20260506095706 | 43 | 258 | 0.0 | 0.0 | 0.05 | 0.28 | 0.28 | 99 | 1008.3 |
| 20260506095203 | 43 | 265 | 1.0 | 2.0 | 0.00 | 0.27 | 0.27 | 99 | 1008.3 |
| 20260506094700 | 43 | 53 | 2.0 | 3.0 | 0.00 | 0.27 | 0.27 | 99 | 1008.1 |
| 20260506094158 | 43 | 302 | 2.0 | 2.0 | 0.00 | 0.27 | 0.27 | 99 | 1008.2 |
| 20260506093657 | 43 | 266 | 1.0 | 1.0 | 0.07 | 0.27 | 0.27 | 99 | 1008.1 |
| 20260506093153 | 43 | 89 | 3.0 | 3.0 | 0.07 | 0.27 | 0.27 | 99 | 1008.1 |
| 20260506092651 | 43 | 255 | 0.0 | 1.0 | 0.00 | 0.26 | 0.26 | 99 | 1007.8 |
| 20260506092148 | 43 | 300 | 1.0 | 2.0 | 0.00 | 0.26 | 0.26 | 99 | 1007.7 |
| 20260506091646 | 44 | 262 | 2.0 | 2.0 | 0.00 | 0.26 | 0.26 | 99 | 1007.6 |
| 20260506091143 | 44 | 238 | 2.0 | 2.0 | 0.05 | 0.26 | 0.26 | 99 | 1007.5 |
| 20260506090641 | 44 | 302 | 2.0 | 2.0 | 0.05 | 0.26 | 0.26 | 99 | 1007.6 |
| 20260506090137 | 44 | 42 | 2.0 | 2.0 | 0.00 | 0.25 | 0.25 | 99 | 1007.6 |
| 20260506085634 | 43 | 240 | 0.0 | 0.0 | 0.00 | 0.25 | 0.25 | 99 | 1008.0 |
| 20260506085130 | 43 | 80 | 3.0 | 4.0 | 0.00 | 0.25 | 0.25 | 99 | 1007.8 |
| 20260506084627 | 44 | 140 | 2.0 | 2.0 | 0.07 | 0.25 | 0.25 | 99 | 1008.3 |
| 20260506084124 | 44 | 269 | 1.0 | 1.0 | 0.07 | 0.25 | 0.25 | 99 | 1008.1 |
| 20260506083621 | 44 | 246 | 1.0 | 1.0 | 0.00 | 0.24 | 0.24 | 99 | 1008.4 |
| 20260506083119 | 44 | 312 | 1.0 | 1.0 | 0.00 | 0.24 | 0.24 | 99 | 1007.9 |
| 20260506082615 | 44 | 211 | 1.0 | 2.0 | 0.05 | 0.24 | 0.24 | 99 | 1007.8 |
| 20260506082111 | 44 | 67 | 4.0 | 4.0 | 0.05 | 0.24 | 0.24 | 99 | 1008.1 |
| 20260506081609 | 44 | 86 | 3.0 | 3.0 | 0.00 | 0.23 | 0.23 | 99 | 1008.1 |
| 20260506081106 | 44 | 64 | 3.0 | 3.0 | 0.00 | 0.23 | 0.23 | 99 | 1008.2 |
| 20260506080604 | 44 | 201 | 2.0 | 2.0 | 0.07 | 0.23 | 0.23 | 99 | 1008.1 |
| 20260506073044 | 45 | 230 | 1.0 | 1.0 | 0.00 | 0.21 | 0.21 | 99 | 1007.8 |
| 20260506072541 | 45 | 25 | 8.0 | 9.0 | 0.05 | 0.21 | 0.21 | 99 | 1007.9 |
| 20260506072039 | 45 | 314 | 2.0 | 2.0 | 0.05 | 0.21 | 0.21 | 99 | 1007.9 |
| 20260506071537 | 45 | 79 | 3.0 | 3.0 | 0.00 | 0.20 | 0.20 | 99 | 1007.9 |
| 20260506071034 | 45 | 326 | 2.0 | 3.0 | 0.00 | 0.20 | 0.20 | 99 | 1007.9 |
| 20260506070531 | 45 | 293 | 1.0 | 2.0 | 0.07 | 0.20 | 0.20 | 99 | 1007.9 |
| 20260506062508 | 45 | 3 | 4.0 | 4.0 | 0.05 | 0.17 | 0.17 | 98 | 1008.6 |
| 20260506062005 | 45 | 14 | 3.0 | 3.0 | 0.05 | 0.17 | 0.17 | 98 | 1009.3 |
| 20260506061500 | 46 | 355 | 8.0 | 9.0 | 0.07 | 0.16 | 0.16 | 98 | 1008.8 |
| 20260506060958 | 46 | 4 | 4.0 | 4.0 | 0.07 | 0.16 | 0.16 | 98 | 1008.7 |
| 20260506060457 | 46 | 6 | 4.0 | 4.0 | 0.05 | 0.15 | 0.15 | 98 | 1008.7 |
| 20260506050925 | 47 | 69 | 2.0 | 2.0 | 0.12 | 0.08 | 0.08 | 98 | 1009.2 |
| 20260506050423 | 47 | 219 | 0.0 | 1.0 | 0.12 | 0.07 | 0.07 | 98 | 1009.2 |
| 20260506044914 | 46 | 188 | 2.0 | 2.0 | 0.05 | 0.04 | 0.04 | 98 | 1008.9 |
| 20260506044412 | 46 | 171 | 0.0 | 1.0 | 0.05 | 0.04 | 0.04 | 98 | 1008.9 |
| 20260506043908 | 46 | 207 | 1.0 | 1.0 | 0.07 | 0.03 | 0.03 | 98 | 1008.7 |
| 20260506043406 | 46 | 72 | 3.0 | 4.0 | 0.07 | 0.03 | 0.03 | 98 | 1008.7 |
| 20260506042904 | 47 | 259 | 0.0 | 0.0 | 0.05 | 0.02 | 0.02 | 98 | 1008.6 |
| 20260506042403 | 47 | 270 | 0.0 | 0.0 | 0.05 | 0.02 | 0.02 | 98 | 1008.5 |
| 20260506041900 | 47 | 244 | 0.0 | 0.0 | 0.07 | 0.01 | 0.01 | 98 | 1008.5 |
| 20260506041357 | 47 | 65 | 1.0 | 2.0 | 0.07 | 0.01 | 0.01 | 98 | 1008.6 |
| 20260506040855 | 47 | 340 | 1.0 | 2.0 | 0.00 | 0.00 | 0.00 | 98 | 1008.5 |
| 20260506040352 | 47 | 295 | 0.0 | 1.0 | 0.05 | 0.00 | 0.00 | 98 | 1008.7 |
| 20260506035848 | 47 | 159 | 1.0 | 1.0 | 0.05 | 0.23 | 0.23 | 98 | 1008.9 |
| 20260506035346 | 47 | 218 | 0.0 | 0.0 | 0.07 | 0.22 | 0.22 | 98 | 1009.2 |
| 20260506034843 | 47 | 251 | 0.0 | 0.0 | 0.07 | 0.22 | 0.22 | 98 | 1009.2 |
| 20260506034340 | 47 | 209 | 0.0 | 0.0 | 0.00 | 0.21 | 0.21 | 98 | 1009.4 |
| 20260506033837 | 47 | 236 | 0.0 | 0.0 | 0.00 | 0.21 | 0.21 | 98 | 1009.4 |
| 20260506033334 | 47 | 237 | 0.0 | 0.0 | 0.00 | 0.21 | 0.21 | 98 | 1009.4 |
| 20260506032830 | 47 | 251 | 0.0 | 0.0 | 0.00 | 0.21 | 0.21 | 98 | 1009.4 |
| 20260506032327 | 47 | 263 | 0.0 | 0.0 | 0.00 | 0.21 | 0.21 | 98 | 1009.0 |
| 20260506031824 | 47 | 250 | 1.0 | 1.0 | 0.07 | 0.21 | 0.21 | 98 | 1008.9 |
| 20260506031322 | 47 | 213 | 2.0 | 2.0 | 0.07 | 0.21 | 0.21 | 97 | 1008.9 |